Theta_e
310 308 303 302 302 301 302 303 304 302 300 300 300 300 300 299 299 298 298 300 301 301 300 298 295 292 291 289 289 289 288 288 288 288 290 291 291 291
310 308 306 302 302 302 302 302 302 303 303 302 301 301 300 299 299 298 298 299 301 300 299 298 294 292 290 289 289 288 288 288 287 287 287 288 289 289
312 309 308 305 302 303 302 302 301 302 303 303 302 301 300 300 299 298 297 298 300 300 299 297 295 293 290 288 288 288 288 287 287 286 286 286 286 286
315 311 309 306 302 303 302 303 302 302 303 303 302 302 301 300 298 297 296 298 299 299 299 296 295 292 289 288 288 288 287 287 287 286 286 286 285 285
317 312 307 305 301 302 303 303 302 301 303 304 304 303 302 301 299 298 297 298 298 298 298 295 295 291 288 288 288 287 287 286 286 286 286 285 284 284
318 313 306 303 301 303 303 303 301 302 303 303 303 303 302 301 299 298 297 297 298 298 297 296 295 290 288 288 287 287 286 286 285 285 285 284 284 284
319 313 307 302 301 303 303 303 302 302 302 302 302 303 302 301 301 299 297 296 297 297 296 295 294 290 288 287 287 286 286 285 285 285 284 284 284 284
319 313 307 301 301 302 302 302 302 301 301 301 301 301 302 302 301 300 297 296 297 297 296 295 293 290 288 287 286 286 286 285 285 284 284 284 284 284
319 315 306 300 301 302 301 301 300 300 300 300 300 300 300 300 301 299 297 297 297 295 295 297 292 289 287 287 286 286 285 285 284 284 283 283 283 284
318 316 307 300 300 301 301 300 300 301 302 301 300 299 298 299 299 297 295 296 295 295 298 295 290 288 287 287 286 285 285 285 284 283 283 283 283 283
318 315 306 302 302 302 301 301 302 304 303 301 300 299 298 300 298 296 296 296 295 297 297 292 289 287 287 287 286 285 285 284 284 283 283 282 282 282
316 311 305 304 303 303 304 305 305 304 303 301 300 299 298 298 296 295 294 294 295 297 294 291 288 287 286 286 285 285 284 283 283 283 283 282 282 282
313 308 303 304 305 306 306 306 305 305 304 300 298 299 297 296 295 295 294 294 296 295 292 289 286 286 286 285 285 284 284 283 283 283 283 283 282 282
315 310 306 305 307 307 308 306 305 303 302 299 299 298 296 295 294 294 293 295 296 294 290 287 287 285 285 285 285 284 284 283 283 283 283 283 282 282
315 312 308 309 310 309 308 306 305 305 301 298 298 296 294 293 293 293 295 295 294 292 288 288 286 285 284 284 284 284 284 284 283 282 283 282 281 281
313 312 307 311 311 309 308 306 305 302 298 298 297 294 293 293 292 294 295 295 294 290 288 286 285 285 284 283 283 283 283 282 282 282 282 282 281 281
311 311 310 310 309 307 307 306 302 298 297 299 297 293 292 291 293 294 295 294 292 288 286 285 285 285 284 283 283 282 282 282 281 281 281 281 281 281
310 311 310 309 308 308 307 304 299 297 298 296 296 292 291 292 294 294 294 293 288 287 285 284 284 284 283 283 283 282 281 281 281 281 280 281 281 281
309 309 310 310 308 307 306 303 302 297 299 301 292 292 291 292 294 295 293 289 288 284 284 284 284 283 284 284 282 281 281 280 280 280 280 279 280 281
309 309 309 309 308 305 302 301 298 299 301 294 292 291 291 293 294 293 290 288 284 284 284 283 283 283 283 282 282 282 279 280 280 280 279 279 279 280
309 309 309 308 306 305 302 300 300 301 297 292 294 290 292 293 293 290 288 284 284 283 283 283 283 282 282 281 281 281 281 279 279 279 279 279 279 280
308 306 306 305 304 303 301 300 301 299 295 294 289 290 292 292 290 288 284 284 283 283 283 282 282 281 281 280 280 280 280 280 280 279 279 278 278 277
305 304 303 302 301 301 300 300 298 295 293 289 289 292 292 291 288 284 284 283 283 283 282 282 281 280 280 280 279 279 279 279 279 280 280 279 279 280
Wind_Speed
38 40 22 18 14 15 14 14 21 23 27 24 20 20 17 15 13 11 9 6 3 4 8 11 14 14 15 13 13 14 16 17 19 19 19 19 19 20
37 40 32 18 16 14 16 14 21 14 19 22 23 20 19 17 15 12 9 7 4 4 8 11 13 14 13 13 14 15 16 18 18 19 20 20 21 23
38 38 35 27 17 15 17 16 22 18 11 18 22 19 21 19 15 13 11 8 6 5 8 11 14 15 13 12 14 16 17 18 18 18 18 21 23 24
37 37 35 33 22 17 17 18 22 20 12 11 20 23 21 19 17 15 13 9 8 7 8 10 14 14 12 13 15 16 17 17 17 18 19 22 24 25
35 37 35 35 26 20 19 19 22 19 12 9 13 20 20 21 19 17 14 12 9 8 8 10 14 13 12 14 15 16 17 17 16 18 21 23 25 27
35 36 36 35 26 21 21 20 23 17 13 10 11 14 18 19 19 17 15 13 11 9 9 11 14 12 12 14 15 16 16 16 17 20 22 23 25 27
34 36 36 34 25 22 20 22 22 16 13 11 12 15 17 19 18 17 16 14 12 10 9 11 13 13 13 14 15 15 16 16 18 21 23 24 25 27
35 37 35 34 27 23 20 19 15 12 12 12 12 13 14 16 16 16 16 15 12 11 9 12 13 13 13 14 15 15 14 15 19 22 24 24 26 28
36 37 38 36 30 26 23 21 18 16 14 10 9 9 10 11 13 16 16 14 12 10 10 13 13 13 13 14 16 14 14 16 20 23 25 25 27 29
38 37 40 39 33 27 26 25 22 19 16 14 13 11 11 10 12 12 11 13 12 9 11 14 13 12 12 14 15 11 14 17 21 24 26 27 29 30
38 37 40 37 33 30 27 25 21 19 17 16 13 13 13 12 14 16 16 13 10 9 12 13 13 11 13 12 11 10 15 18 22 24 25 27 30 31
35 37 38 35 33 29 26 23 19 17 15 14 13 13 14 15 15 15 14 11 9 9 11 12 11 11 9 9 8 12 15 17 23 24 26 30 30 33
40 41 39 35 31 27 23 18 15 13 13 13 12 12 14 14 15 15 13 11 8 10 12 10 10 11 11 11 9 11 14 19 21 24 26 30 30 32
40 40 39 35 31 27 23 18 15 14 11 14 14 14 16 16 15 15 13 10 9 11 10 8 11 11 11 12 12 13 18 21 24 26 31 32 30 30
42 43 41 36 32 28 22 19 16 17 17 18 15 15 16 15 14 14 11 9 10 10 8 10 10 10 11 11 14 17 22 23 24 31 30 33 33 34
38 40 38 36 31 27 30 27 21 19 20 17 14 16 17 15 15 13 10 9 10 9 9 9 10 12 12 11 13 17 21 21 27 28 31 33 32 32
36 35 37 36 36 34 27 23 24 25 22 17 18 17 18 16 15 12 10 10 10 8 8 9 10 11 11 13 15 18 18 24 27 31 34 37 34 33
37 39 35 38 35 29 27 28 28 25 23 20 19 18 17 16 15 11 11 11 9 9 8 9 10 11 11 12 16 14 20 26 30 31 33 37 37 33
33 37 35 32 32 32 31 30 28 25 21 19 19 18 18 18 13 11 11 10 9 8 8 9 10 11 12 14 15 17 25 28 32 33 33 34 34 33
36 36 38 39 36 32 29 27 25 25 24 21 22 21 20 15 13 11 10 10 9 7 7 9 10 11 13 15 17 18 21 27 30 32 34 35 31 29
30 32 34 36 35 32 30 26 25 24 23 25 22 20 17 16 13 12 11 9 7 6 7 8 9 11 14 16 17 19 19 21 24 28 31 34 36 34
26 27 28 28 29 27 26 25 25 23 23 22 21 19 17 14 13 11 10 8 6 6 7 7 9 11 14 17 19 21 23 24 21 20 22 23 30 27
21 21 21 23 24 24 24 25 20 19 22 23 21 18 16 14 13 11 9 7 6 7 7 7 9 12 14 16 18 21 23 25 28 28 20 21 23 24
Wind_Direction
209 207 203 208 212 213 216 227 214 195 201 204 202 205 204 202 203 204 210 220 267 335 342 349 355 355 353 352 353 355 356 358 358 359 2 5 5 4
208 209 210 212 217 214 208 213 217 223 210 210 209 208 206 207 208 210 216 226 254 305 329 345 350 348 347 347 349 351 353 355 356 357 359 1 2 359
209 210 214 217 222 218 213 212 212 214 225 217 211 208 208 211 211 213 219 227 245 285 319 338 343 342 340 345 346 347 347 349 354 358 358 356 354 351
209 209 213 214 219 216 212 213 207 210 227 232 209 208 208 209 211 215 220 227 242 277 310 329 335 335 334 341 342 341 340 348 352 355 352 351 353 350
212 210 211 210 217 215 209 211 202 205 220 222 216 212 211 210 214 218 220 228 243 267 295 322 326 330 330 335 334 332 340 343 348 349 349 350 351 349
211 212 212 210 214 213 209 207 194 207 214 218 211 213 216 214 215 221 224 232 242 261 288 308 322 324 320 327 327 332 336 341 345 346 347 348 349 347
209 211 211 209 213 213 213 200 197 208 215 218 217 216 217 217 225 224 225 229 242 260 282 306 316 318 317 317 322 327 333 338 341 341 344 345 346 345
208 208 208 206 206 205 205 205 211 223 230 232 230 232 233 233 224 229 230 232 244 264 281 305 314 310 308 312 319 321 328 331 337 339 340 342 346 343
211 207 205 203 202 203 197 202 209 215 220 225 234 236 239 241 237 236 234 236 246 264 289 312 313 306 301 311 313 310 322 329 335 337 337 339 342 341
212 209 207 205 206 203 202 206 212 217 221 230 230 223 221 220 230 233 235 236 245 263 300 308 309 304 308 312 303 293 321 326 335 337 337 336 340 339
211 206 206 204 203 202 208 212 217 222 225 227 228 232 228 232 223 224 228 237 243 275 306 306 308 309 318 311 302 288 316 323 331 333 335 335 337 336
201 203 203 203 202 203 208 215 221 227 228 234 231 229 231 228 220 214 220 229 244 294 308 308 309 318 322 313 317 303 313 323 329 331 334 338 339 335
199 196 196 196 199 202 205 212 221 229 233 230 229 237 233 223 216 215 223 231 261 298 305 305 309 309 307 306 310 310 314 325 330 334 336 339 342 336
200 194 194 192 194 197 200 198 209 214 229 232 229 227 221 216 214 216 221 238 275 298 302 298 303 307 310 312 317 322 321 332 334 340 339 339 339 336
197 195 192 193 194 192 191 199 213 222 227 220 223 221 215 211 216 218 224 254 288 301 290 292 295 306 312 312 322 331 330 334 333 336 337 338 344 341
188 196 191 187 192 199 206 206 213 220 218 215 215 217 211 213 217 219 237 274 293 283 283 290 302 312 316 319 325 329 326 328 332 334 337 340 348 346
177 185 189 187 195 200 202 207 210 207 204 206 218 215 214 215 214 225 255 283 277 271 276 288 304 311 313 321 329 329 326 330 333 339 339 340 352 351
193 189 198 197 200 210 207 207 205 204 205 204 217 213 215 216 218 238 273 270 261 266 275 296 310 310 312 319 326 328 328 334 340 342 340 340 347 354
197 200 207 208 207 207 209 208 208 201 211 216 208 213 216 213 225 258 252 244 252 263 288 299 307 313 318 326 337 341 338 339 337 339 341 342 346 350
204 213 215 214 213 211 206 205 203 214 219 200 204 213 214 221 246 240 234 237 242 268 288 302 311 314 324 332 334 339 341 336 337 338 339 337 341 348
204 211 216 216 214 212 209 206 214 223 207 204 209 206 213 236 231 224 224 230 250 270 288 299 306 317 324 329 331 334 339 341 340 339 337 336 341 347
207 209 211 212 212 210 209 211 214 207 206 198 195 209 223 219 218 215 220 238 247 265 282 299 311 322 326 328 331 333 336 338 342 342 341 343 344 337
203 205 206 205 202 204 209 208 204 200 190 186 206 212 211 210 208 213 220 239 261 274 282 300 315 322 323 327 330 336 337 337 338 342 351 339 342 344